Location: Cornospital
(48.0620°N, 3.3837°W)
Time: 16:50:03
(UTC+00:00)

CARTOSAT-1 - Pass Details

Date: 17 June 2021
Orbit: 616 x 619 km, 97.8° (Epoch: 31 July)

Event Time Altitude Azimuth Distance (km) Brightness Sun altitude
Exits shadow 21:27:33 10° 164° (SSE) 1,963 5.6 -9.3°
Maximum altitude 21:31:49 87° 80° (E) 627 3.6 -9.8°
Drops below altitude 10° 21:36:11 10° 347° (NNW) 1,996 7.4 -10.2°
Sets 21:38:22 0° 348° (NNW) 2,907 8.4 -10.4°
